www.pogodaiklimat.ru
ПОГОДА в Леувардене
Время
(UTC), дата
22 18.01
23 18.01
00 19.01
01 19.01
02 19.01
03 19.01
04 19.01
05 19.01
06 19.01
07 19.01
08 19.01
09 19.01
10 19.01
11 19.01
12 19.01
13 19.01
14 19.01
15 19.01
16 19.01
17 19.01
18 19.01
19 19.01
20 19.01
21 19.01
22 19.01
23 19.01
00 20.01
01 20.01
02 20.01
03 20.01
04 20.01
05 20.01
06 20.01
07 20.01
08 20.01
09 20.01
10 20.01
11 20.01
12 20.01
13 20.01
14 20.01
15 20.01
16 20.01
17 20.01
18 20.01
19 20.01
20 20.01
21 20.01
22 20.01
23 20.01
00 21.01
01 21.01
02 21.01
03 21.01
04 21.01
05 21.01
06 21.01
07 21.01
08 21.01
09 21.01
10 21.01
11 21.01
12 21.01
13 21.01
14 21.01
15 21.01
16 21.01
17 21.01
18 21.01
19 21.01
20 21.01
21 21.01
22 21.01
23 21.01
00 22.01
01 22.01
02 22.01
03 22.01
04 22.01
05 22.01
06 22.01
07 22.01
08 22.01
09 22.01
10 22.01
11 22.01
12 22.01
13 22.01
14 22.01
15 22.01
16 22.01
17 22.01
18 22.01
19 22.01
20 22.01
21 22.01
22 22.01
23 22.01
00 23.01
01 23.01
02 23.01
03 23.01
04 23.01
05 23.01
06 23.01
07 23.01
08 23.01
09 23.01
10 23.01
11 23.01
12 23.01
13 23.01
14 23.01
15 23.01
16 23.01
17 23.01
18 23.01
19 23.01
20 23.01
21 23.01
22 23.01
23 23.01
00 24.01
01 24.01
02 24.01
03 24.01
04 24.01
05 24.01
06 24.01
07 24.01
08 24.01
09 24.01
10 24.01
11 24.01
12 24.01
13 24.01
14 24.01
15 24.01
16 24.01
17 24.01
18 24.01
19 24.01
20 24.01
21 24.01
22 24.01
23 24.01
00 25.01
01 25.01
02 25.01
03 25.01
04 25.01
05 25.01
06 25.01
07 25.01
08 25.01
09 25.01
10 25.01
11 25.01
12 25.01
13 25.01
14 25.01
15 25.01
16 25.01
17 25.01
18 25.01
19 25.01
20 25.01
21 25.01
22 25.01
Ветер
(напр.,м/с)
Видим. Явления Облачность Т
(С)
Тd
(С)
f
(%)
Тe
(С)
Тes
(С)
Комфортность P
(гПа)
Po
(гПа)
Тmin
(С)
Tmax
(С)
R
(мм)
R24
(мм)
S
(см)
ЮЗ 5-7
{7}
23 км {ливн. дождь} 9/9 +3.6 +2.5 93 -2 -2 1014.2 1014.1
Ю 4-6
{7}
19 км {ливн. дождь} 9/8 1000 м +3.6 +2.8 94 -1 -1 1013.4 1013.3
Ю 5-8
{9}
2800 м в посл. час дождь {ливн. дождь, морось} 10/10 60 м +4.5 +4.1 97 -1 -1 1012.2 1012.2
Ю 8-11
{12}
3000 м слаб. ливневой дождь {морось} 10/10 100 м +4.8 +4.4 97 -1 -1 1010.6 1010.7 1
Ю 8-11
{14}
3400 м морось с дождем {ливн. дождь} 10/10 100 м +5.2 +4.7 97 -1 -1 1009.0 1009.0 0.6
Ю 9-13
{14}
5000 м дождь {ливн. дождь, морось} 10/10 180 м +4.7 +4.0 95 -2 -2 1007.5 1007.5 2
Ю 8 9000 м дождь {ливн. дождь, морось} 10/10 100 м +4.6 +4.0 96 -2 -2 1006.2 1006.1 0.8
Ю 8 7000 м дождь {ливн. дождь, морось} 10/10 200 м +4.7 +4.0 95 -1 -1 1004.7 1004.6 2
Ю 8-14
{15}
8000 м дождь {ливн. дождь, морось} 10/10 150 м +4.8 +4.1 95 -1 -1 1003.0 1003.0 +2.9 2 8.9
Ю 8 6000 м дождь 10/10 200 м +5.0 +4.4 96 -1 -1 1001.9 1001.8 1
Ю 8 8000 м морось {дождь} 10/10 100 м +5.4 +4.8 96 -1 -1 1001.0 1001.0 0.7
Ю 6-9
{14}
4300 м слаб. морось {дождь} 10/10 90 м +5.6 +5.3 98 0 0 1000.2 1000.1 0.2
ЮЗ 5 6000 м в посл. час морось {дождь} 10/10 50 м +6.5 +6.3 99 +2 +2 1000.1 1000.0
З 8 14 км в посл. час дождь {ливн. дождь, морось} 10/10 100 м +8.4 +8.0 97 +4 +4 1000.2 1000.0 0.1
З 8-10
{14}
17 км {ливн. дождь, морось} 10/10 180 м +8.5 +7.7 95 +4 +4 1000.6 1000.4
ЮЗ 7 13 км слаб. морось 10/10 200 м +8.0 +7.4 96 +3 +3 1000.6 1000.5
ЮЗ 7 11 км морось с дождем {ливн. дождь} 10/9 200 м +8.0 +7.5 97 +3 +3 1000.4 1000.4 0.9
ЮЗ 6-9
{11}
2800 м морось с дождем {ливн. дождь} 10/10 90 м +8.4 +8.0 97 +4 +4 1000.3 1000.2 2
ЮЗ 11 13 км в посл. час дождь {ливн. дождь, морось} 10/8 600 м +9.0 +7.9 93 +4 +4 1000.6 1000.5
ЮЗ 11 10 км {ливн. дождь, дождь} 10/9 300 м +9.0 +7.8 92 +4 +4 1000.6 1000.6
ЮЗ 10-14
{16}
16 км {ливн. дождь, дождь} 10/10 450 м +8.8 +6.9 88 +4 +4 1000.5 1000.3 +9.1
ЮЗ 10 10 км 10/10 300 м +8.4 +7.2 92 +3 +3 1000.5 1000.4
ЮЗ 10 14 км слаб. морось {дымка} 10/10 300 м +8.3 +7.0 92 +3 +3 1000.2 1000.2
ЮЗ 11-14
{17}
11 км морось {ливн. дождь, дымка} 10/10 210 м +8.0 +7.0 93 +2 +2 999.9 999.8 0.2
Ю 8-13
{16}
18 км слаб. морось с дождем 10/10 300 м +7.6 +6.3 91 +3 +3 999.1 999.1 0.1
ЮЗ 9-14
{15}
8000 м слаб. дождь {морось} 10/10 300 м +7.0 +6.0 93 +1 +1 998.7 998.6 0.6
ЮЗ 10-15
{17}
9000 м слаб. дождь {морось} 10/10 270 м +6.8 +5.7 93 +1 +1 997.9 997.9 1
ЮЗ 9-13
{16}
17 км слаб. ливневой дождь 10/10 300 м +6.9 +5.3 90 +1 +1 997.5 997.4 0.1
Ю 9-14
{15}
17 км слаб. морось с дождем 10/10 300 м +6.9 +5.3 90 +1 +1 996.8 996.8 0.1
Ю 9-14
{16}
8000 м слаб. ливневой дождь 10/10 360 м +6.7 +5.3 91 +1 +1 996.3 996.2 0.1
ЮЗ 10 12 км в посл. час дождь {ливн. дождь} 10/10 300 м +6.9 +5.4 90 +1 +1 995.9 995.8
Ю 10 10 км {ливн. дождь, дождь} 10/10 300 м +6.9 +5.7 92 +1 +1 995.3 995.3
Ю 9-13
{16}
17 км {ливн. дождь, дождь} 10/10 360 м +7.4 +5.7 89 +2 +2 994.8 994.7 +6.7 6.8
Ю 10 10 км слаб. ливневой дождь 10/10 300 м +7.2 +5.9 91 +2 +2 994.6 994.4 0.2
Ю 10 10 км морось с дождем {ливн. дождь} 10/10 300 м +7.2 +6.0 92 +1 +1 994.3 994.3 0.2
ЮЗ 10-14
{15}
6000 м в посл. час дождь {ливн. дождь} 10/10 420 м +7.5 +6.1 91 +2 +2 994.5 994.4
Ю 10 8000 м в посл. час дождь {ливн. дождь} 10/10 300 м +7.9 +6.5 91 +2 +2 994.4 994.3 0.1
Ю 10 45 км {ливн. дождь, дождь} 10/10 300 м +8.1 +5.9 86 +3 +3 993.9 993.8
ЮЗ 9-15
{16}
45 км {ливн. дождь, дождь} 10/10 600 м +8.6 +5.6 81 +4 +4 993.6 993.5
Ю 10 45 км 10/10 600 м +8.9 +5.1 77 +4 +4 992.8 992.8
Ю 9 26 км слаб. ливневой дождь 10/10 600 м +8.3 +5.1 80 +3 +3 992.2 992.1 0.1
Ю 9-12
{16}
45 км в посл. час дождь {ливн. дождь, морось} 10/10 1230 м +8.5 +5.0 79 +4 +4 991.7 991.6
Ю 6 45 км {ливн. дождь, морось} 10/10 +8.3 +4.3 76 +4 +4 991.3 991.3
Ю 8 45 км {ливн. дождь, морось} 9/9 +8.5 +3.7 72 +4 +4 990.9 990.8
Ю 9-12
{16}
45 км {ливн. дождь, морось} 10/10 +8.6 +3.1 68 +4 +4 990.4 990.3 +8.9 0.6
Ю 8 45 км 10/10 +8.4 +3.1 69 +4 +4 989.9 989.9
Ю 7 45 км 10/10 +8.5 +3.0 68 +4 +4 989.1 989.0
Ю 8 45 км 5/5 +8.8 +3.3 68 +5 +5 988.5 988.5
Ю 9-13
{15}
45 км слаб. морось 10/10 1500 м +9.0 +4.0 71 +5 +5 987.6 987.6
Ю 9-13
{14}
45 км в посл. час дождь {ливн. дождь, морось} 10/10 1500 м +9.5 +4.2 69 +5 +5 986.5 986.5
Ю 9-14
{15}
45 км {ливн. дождь, морось} 10/6 2000 м +9.2 +5.1 76 +5 +5 984.9 985.0
Ю 9-13
{14}
45 км слаб. ливневой дождь 8/8 1500 м +9.5 +5.2 75 +5 +5 982.9 982.9
Ю 9-14
{14}
45 км в посл. час дождь {ливн. дождь} 10/10 1500 м +10.0 +5.2 72 +6 +6 981.3 981.3
Ю 12-18
{18}
45 км в посл. час дождь {ливн. дождь} 10/10 1000 м +10.5 +5.4 71 +6 +6 979.4 979.4 0.1
Ю 12 6000 м ливневой дождь 10/10 600 м +9.2 +6.6 84 +4 +4 978.6 978.6 0.9
ЮЗ 14 16 км сильн. морось {ливн. дождь, дождь} 9/8 1000 м +7.3 +4.4 82 +1 +1 980.1 980.0 2
ЮЗ 12-16
{23}
28 км в посл. час дождь {ливн. дождь, морось} 9/9 500 м +5.4 +2.8 83 -1 -1 981.9 981.7 +5.4 0.3 3.8
ЮЗ 10 28 км в посл. час осадки {ливн. дождь} 6/6 600 м +5.2 +2.2 81 -1 -1 983.8 983.6
ЮЗ 10 30 км в посл. час осадки 8/8 1000 м +5.5 +2.1 79 -1 -1 985.0 984.8
ЮЗ 11 28 км {ливн. дождь} 4/4 1000 м +5.5 +1.8 77 -1 -1 985.8 985.7
ЮЗ 10 29 км {ливн. дождь} 8/8 600 м +6.4 +2.4 76 +1 +1 986.2 986.0
Ю 10 30 км {ливн. дождь} 10/8 1000 м +6.1 +2.8 79 0 0 986.2 986.1
ЮЗ 12-17
{18}
24 км {ливн. дождь} 9/9 800 м +7.2 +3.8 79 +1 +1 985.9 985.8
ЮЗ 12 30 км в посл. час осадки {ливн. дождь} н/о +7.2 +3.9 80 +1 +1 985.5 985.4
ЮЗ 10 40 км {ливн. дождь} н/о +7.3 +3.7 78 +2 +2 985.6 985.5
Ю 10 40 км {ливн. дождь} н/о +7.0 +3.4 78 +1 +1 986.1 985.9
ЮЗ 10 45 км {ливн. дождь} н/о +6.6 +3.1 78 +1 +1 986.3 986.2
ЮЗ 8 45 км {ливн. дождь} н/о +6.0 +3.0 81 +1 +1 986.4 986.3
Ю 8-11
{18}
45 км {ливн. дождь} н/о +5.6 +3.1 84 0 0 986.3 986.2 +7.6
Ю 7 45 км 4/4 600 м +5.8 +3.3 84 +1 +1 986.1 986.0
Ю 6 35 км 10/10 +5.9 +3.4 84 +1 +1 984.9 984.8
Ю 6 45 км 4/4 1500 м +5.9 +3.2 83 +1 +1 984.1 984.0
Ю 5-9
{10}
40 км слаб. ливневой дождь 10/10 1000 м +5.0 +2.9 86 0 0 983.1 983.1
Ю 4-6
{8}
30 км морось {ливн. дождь, дождь} 10/10 1000 м +4.3 +3.0 91 -0 -0 982.6 982.6 0.2
ЮЗ 3-5
{12}
17 км дождь {ливн. дождь, морось} 10/10 660 м +3.8 +2.9 94 -0 -0 982.4 982.3 1
ЮЗ 4-6
{6}
45 км слаб. дождь 9/9 1000 м +3.7 +2.6 93 -1 -1 982.3 982.2 0.8
ЮЗ 6-9
{9}
17 км морось с дождем 9/6 1000 м +4.0 +2.9 93 -2 -2 982.7 982.5 0.2
ЮЗ 6-8
{9}
45 км в посл. час дождь {морось} 9/9 1500 м +3.9 +2.7 92 -2 -2 983.1 983.0
ЮЗ 5 40 км {дождь, морось} 4/4 600 м +3.5 +2.3 92 -2 -2 983.9 983.8
ЮЗ 6 20 км {дождь, морось} 3/3 600 м +4.2 +2.4 88 -1 -1 984.7 984.5
З 7-11
{11}
23 км {дождь, морось} 1/1 720 м +4.5 +1.7 82 -1 -1 985.1 985.0 +3.1 2.4
ЮЗ 7 24 км 6/6 600 м +3.8 +1.4 84 -2 -2 986.0 985.8
ЮЗ 6 21 км 6/6 600 м +4.3 +1.6 83 -1 -1 987.1 986.9
ЮЗ 7 19 км 5/5 600 м +4.8 +2.2 83 -1 -1 987.3 987.2
З 8 19 км 6/6 600 м +5.9 +2.7 80 0 +1 988.4 988.2
З 9 23 км 4/4 600 м +6.5 +2.1 73 +1 +1 989.1 988.9
З 11-14
{15}
20 км 6/6 720 м +6.3 +1.9 73 0 0 989.6 989.4
З 9 20 км 9/9 600 м +6.9 +2.5 74 +2 +2 989.9 989.8
З 8 21 км 9/8 600 м +6.0 +2.1 76 +1 +1 990.8 990.7
З 8 24 км 10/10 600 м +5.9 +1.2 72 +1 +1 991.8 991.7
ЮЗ 6 20 км 3/1 600 м +5.0 +1.8 80 0 0 992.5 992.3
ЮЗ 3 17 км 3/1 600 м +2.7 +1.0 89 -1 -1 993.1 992.9
ЮЗ 5-6
{15}
18 км 6/4 870 м +3.2 +1.6 89 -2 -2 993.7 993.6 +7.0
ЮЗ 3 20 км 9/9 +2.0 +0.5 90 -2 -2 993.9 993.8
Ю 3 20 км 10/10 +1.3 +0.3 93 -3 -3 994.3 994.2
Ю 3 23 км 9/9 +2.0 +0.9 92 -2 -2 994.6 994.5
Ю 4-5
{6}
18 км 10/10 +2.1 +1.1 93 -3 -3 995.0 994.9
Ю 3-5
{7}
10 км 10/10 +1.7 +1.1 96 -3 -3 995.3 995.1
Ю 3-4
{7}
8000 м дымка 10/3 750 м +2.0 +1.6 97 -2 -2 994.9 994.8
Ю 3-4
{4}
6000 м дымка 10/10 +1.5 +0.9 96 -3 -3 994.6 994.5
Ю 3-4
{5}
8000 м дымка 10/10 +1.2 +0.6 96 -3 -3 994.5 994.4
Ю 3-5
{5}
9000 м дымка 10/10 +1.2 +0.4 94 -3 -3 994.0 993.9
ЮВ 4 8000 м дымка 10/10 +1.2 +0.3 94 -4 -4 993.3 993.2
Ю 5 3900 м дождь со снегом {морось} 10/8 300 м +1.7 +0.8 94 -4 -4 992.8 992.8 0.6
Ю 5-7
{8}
7000 м в посл. час снег {морось, дымка} 10/10 150 м +2.0 +1.4 96 -4 -4 992.6 992.5 +0.9 0.1 0.7
Ю 5 8000 м ливневой дождь 10/10 300 м +2.8 +2.0 94 -3 -3 992.6 992.4
Ю 6 10 км слаб. морось 10/10 300 м +3.5 +2.5 93 -2 -2 992.5 992.4
Ю 7 9000 м в посл. час дождь {ливн. дождь, морось} 10/10 300 м +3.6 +2.7 94 -3 -3 992.3 992.2 0.1
ЮЗ 9 23 км {ливн. дождь, морось} 8/6 1000 м +4.0 +2.0 87 -3 -3 992.4 992.2
ЮЗ 8 40 км в посл. час дождь {ливн. дождь, морось} 8/6 600 м +4.7 +2.5 86 -1 -1 992.5 992.4
ЮЗ 7-10
{13}
45 км {ливн. дождь, морось} 10/10 450 м +4.4 +1.9 84 -1 -1 992.8 992.7
ЮЗ 7 35 км в посл. час морось 8/8 600 м +4.9 +1.9 81 -1 -1 992.9 992.8
З 6 45 км 9/9 600 м +4.8 +1.4 79 -0 -0 992.9 992.7
ЮЗ 4 45 км 9/6 1000 м +3.6 +1.3 85 -1 -1 993.2 993.1
ЮЗ 5 40 км слаб. морось 10/9 600 м +3.2 +1.3 87 -2 -2 993.4 993.3
ЮЗ 2 35 км в посл. час морось 10/10 +1.5 +0.4 92 -2 -2 993.4 993.2
ЮЗ 2-3
{10}
28 км 10/10 +1.3 +0.6 95 -2 -2 993.6 993.5 +5.1
Ю 2 30 км 10/10 +1.0 +0.1 94 -3 -3 993.7 993.6
ЮЗ 1 12 км 9/9 +0.4 -0.2 96 -2 -2 993.8 993.7
Ю 2 9000 м дымка 10/10 600 м +0.3 -0.1 97 -4 -4 993.9 993.8
ЮЗ 1-1
{2}
14 км 10/10 1000 м +1.1 +0.1 93 -1 -1 993.9 993.8
ЮЗ 2-2
{3}
8000 м дымка 10/10 1500 м +0.1 -0.3 97 -4 -4 993.8 993.8
ЮЗ 2-2
{3}
6000 м дымка 10/10 -0.4 -0.9 96 -4 -4 993.7 993.7
З 2-2
{2}
3200 м дымка 10/10 -0.4 -0.6 99 -4 -4 994.0 993.9
С 2-2
{2}
14 км 9/9 -1.2 -1.3 99 -5 -5 994.4 994.3
СЗ 1-1
{3}
9000 м дымка 10/10 +0.2 -0.1 98 -2 -2 994.5 994.4
З 1 11 км 9/9 -0.1 -0.2 99 -2 -2 995.0 994.9
СЗ 3 35 км 9/9 1500 м +0.8 +0.3 96 -4 -4 995.4 995.3
СЗ 2-2
{5}
45 км в посл. час осадки {ливн. снег, дымка} 10/10 1110 м +0.3 -0.5 94 -3 -3 995.7 995.6 -1.5 0.1
З 3 45 км 10/6 600 м +1.1 0.0 92 -3 -3 996.1 996.0
З 2 45 км 9/9 +0.1 -0.8 94 -4 -4 997.0 996.9
З 6 19 км ливневой дождь 9/6 600 м +1.1 +0.2 94 -5 -5 997.7 997.5
СЗ 2 45 км в посл. час дождь {ливн. дождь} 4/4 1500 м +2.6 +0.7 87 -1 0 997.8 997.7 0.1
З 4 45 км {ливн. дождь, снег} 1/1 1500 м +4.3 +0.2 75 0 +1 998.2 998.1
ЮЗ 4-5
{8}
45 км {ливн. дождь, снег} ясно +4.4 +1.3 80 0 +2 998.1 998.1
ЮЗ 5 40 км ясно +4.6 +0.9 77 -0 +1 998.1 998.0
З 3 45 км 9/8 600 м +4.9 +1.3 77 +2 +2 998.1 998.0
СЗ 2 45 км 9/6 1000 м +4.0 +1.2 82 +1 +1 998.4 998.3
штиль 0 45 км 10/10 +2.7 +0.6 86 +2 +2 998.5 998.4
ЮЗ 2 45 км 10/10 +0.8 -0.5 91 -3 -3 998.7 998.6
Ю 2-3
{6}
40 км 9/9 800 м +0.3 -0.8 92 -3 -3 998.8 998.7 +5.2
Ю 2 40 км 9/9 -0.3 -1.1 94 -4 -4 998.8 998.7
Ю 2 22 км 8/8 +0.1 -0.7 94 -4 -4 998.8 998.7
Ю 3 13 км 10/10 -1.2 -1.9 95 -6 -6 998.9 998.8
Ю 2-3
{5}
22 км 10/10 -1.2 -1.9 95 -5 -5 998.9 998.8
ЮЗ 1-1
{3}
6000 м дымка 10/10 -0.9 -1.6 95 -3 -3 999.1 999.0
штиль 0-1
{5}
200 м переохл. туман {дымка} 10/0 -2.7 -3.0 98 -4 -4 999.3 999.2
Ю 1-1
{1}
100 м переохл. туман 10/10 -2.9 -3.0 99 -5 -5 999.5 999.4
Ю 1-2
{3}
2600 м в посл. час туман 10/10 -2.9 -3.6 95 -5 -5 999.9 999.8
З 2-2
{3}
100 м переохл. туман 10/10 -3.5 -4.1 96 -8 -8 1000.3 1000.2
Ю 1 2600 м в посл. час туман 10/10 -2.2 -2.6 97 -5 -5 1000.5 1000.4
Ю 2 2000 м дымка {туман} 4/4 -2.7 -3.1 97 -7 -7 1000.8 1000.7
ЮЗ 2-2
{3}
300 м переохл. туман {дымка} 3/3 700 м -3.6 -4.2 96 -8 -8 1001.2 1001.1 -4.4 0.1
ЮЗ 2 2800 м в посл. час туман 4/4 1500 м -2.4 -2.9 96 -7 -7 1001.8 1001.6
ЮЗ 2 2300 м дымка {туман} ясно -2.0 -2.5 96 -6 -6 1002.4 1002.2
ЮЗ 3 2200 м дымка {туман} ясно -1.5 -1.9 97 -7 -6 1003.1 1002.9
ЮЗ 2 5000 м дымка {туман} 4/4 +1.3 +0.4 94 -2 -1 1003.7 1003.5
ЮЗ 2 16 км {туман, дымка} 9/9 +3.7 +1.5 86 +1 +1 1004.2 1004.1
ЮЗ 3-4
{4}
35 км {туман, дымка} 10/0 +4.3 +0.3 75 +1 +1 1004.4 1004.3
ЮЗ 4 40 км 10/10 +5.0 +0.2 71 +1 +1 1004.4 1004.2
ЮЗ 4 45 км 10/10 +3.8 +0.5 79 -1 -1 1004.7 1004.6
ЮЗ 4 45 км 9/9 +3.4 +0.9 84 -1 -1 1004.8 1004.7
ЮЗ 4 35 км слаб. морось 9/6 600 м +2.8 +0.4 84 -2 -2 1005.1 1004.9
ЮЗ 5 30 км слаб. дождь {морось} 9/9 1000 м +1.9 +0.9 93 -4 -4 1005.2 1005.0 0.4
Ю 4-6
{8}
16 км слаб. дождь {морось} 10/10 270 м +2.0 +1.4 96 -3 -3 1004.8 1004.8 +5.2 0.5
ЮЗ 5 5000 м морось с дождем 10/6 300 м +2.5 +1.8 95 -3 -3 1005.1 1004.9 1
ЮЗ 6 13 км дождь {ливн. дождь, морось} 10/8 600 м +2.7 +1.7 93 -3 -3 1004.2 1004.2 2
З 7 19 км слаб. дождь 10/6 300 м +4.0 +2.6 91 -2 -2 1003.4 1003.2 3
З 5-7
{12}
20 км слаб. ливневой дождь 9/8 600 м +4.3 +2.9 91 -1 -1 1003.4 1003.3 0.4
Местоположение метеостанции Леуварден (Нидерланды): широта 53.22 долгота 5.77 высота над уровнем моря 2 м.
В архиве по умолчанию представлена погода в Леувардене за последнюю неделю. Архивные данные за месяц целиком и за предыдущие месяцы, начиная с января 2011 года, Вы можете получить, выбрав интересующий диапазон дат из раскрывающегося списка и нажав кнопку "Найти!".
*Определитесь, кто Вы:
Внимание! Время в таблицах - всемирное. Для получения местного времени необходимо прибавить поправку, которая равна 1 ч.
Смотрите также архив погоды в соседних городах и на ближайших метеорологических станциях:
Партнеры нашего сайта:      
Пояснения к столбцам:
  • Ветер - указаны скорость ветра в м/с - средняя за 10 мин, порывы в срок и между сроками (в фигурных скобках) и направление, откуда дует ветер: С - северный,
  • СВ - северо-восточный, В - восточный, ЮВ - юго-восточный, Ю - южный, ЮЗ - юго-западный, З - западный, СЗ - северо-западный.
  • Видимость - горизонтальная дальность видимости в метрах или километрах. При видимости от 1 до 10 км при отсутствии осадков обычно наблюдается дымка, при ухудшении видимости до 1 км и менее - туман. В сухую погоду видимость может ухудшаться дымом, пылью или мглою.
  • Явления - указаны атмосферные явления, наблюдавшиеся в срок или в последний час перед сроком; фигурными скобками обозначены явления, наблюдавшиеся между сроками (за 1-3 часа до срока); квадратными скобками обозначены град или гололедные отложения с указанием их диаметра в мм.
  • Облачность - указаны через наклонную черту общая и нижняя облачность в баллах и высота нижней границы облаков в метрах; квадратными скобками обозначены формы облаков: Ci - перистые, Cs - перисто-слоистые, Cc - перисто-кучевые, Ac - высококучевые, As - высокослоистые, Sc - слоисто-кучевые, Ns - слоисто-дождевые, Cu - кучевые, Cb - кучево-дождевые. Подробнее классификацию облаков см. в Атласе облаков (PDF).
  • T - Температура воздуха - температура, измеренная на высоте 2 м над землей.
  • Td - Температура точки росы - температура, при понижении до которой содержащийся в воздухе водяной пар достигнет насыщения.
  • f - Относительная влажность воздуха - влажноcть воздуха, измеренная на высоте 2 м над землей.
  • Te - Эффективная температура - температура, которую ощущает одетый по сезону человек в тени. Характеристика душности погоды. При расчете учитывается влияние влажности воздуха и скорости ветра на теплоощущения человека.
  • Tes - Эффективная температура на солнце - температура, которую ощущает человек, с поправкой на солнечный нагрев. Характеристика знойности погоды. Зависит от высоты солнца над горизонтом, облачности и скорости ветра. Ночью, в пасмурную погоду, а также при ветре 12 м/с и более поправка равна нулю.
  • P - Атмосферное давление - приведенное к уровню моря атмосферное давление.
  • Po - Атмосферное давление - измеренное на уровне метеостанции атмосферное давление.
  • Tmin - Минимальная температура - минимум температуры воздуха на высоте 2 м над землей.
  • Tmax - Максимальная температура - максимум температуры воздуха на высоте 2 м над землей.
  • R - Количество осадков - Количество выпавших осадков за период времени, мм. При наведении курсора мыши на число - период времени, за который выпало указанное количество осадков.
  • R24 - Количество осадков - Количество выпавших осадков за 24 часа, мм.
  • S - Снежный покров - Высота снежного покрова, см. При наведении курсора мыши на число - состояние снежного покрова и степень покрытия местности в баллах.